Main page
METAR-TAF:

METAR-TAF

Airports :

Sabzevar, Iran

Sabzevar Airport

latitude: 36-13N, longitude: 057-40E, elevation: 941 m

Current weather observation

The report was made 19 hours and 51 minutes ago, at 09:00 UTC
Calm wind
Temperature 35°C
Humidity 13%
Pressure 1015 hPa
Visibility 10 km or more
no clouds below 1500 m and no cumulonimbus

METAR: OIMS 230900Z 00000KT CAVOK 35/03 Q1015

Time: 09:21 (04:51 UTC)


TAF: missing

Weather observations and forecasts of more than 4000 airports (METAR and TAF reports).

The available stations are represented by yellow and red dots on the map.

Hover mouse over dot to see the name of the station.

Then click to see weather observations and forecasts.

To change the map : click on the green buttons with a black cross to zoom in, on the green button with a dash to zoom out, or on the green arrows for adjacent maps.


METAR-TAF: